N1HQ Weather Reports


time (UTC)temp
C
wind
direction
speed
KPH
gust
KPH
rain 1hr
cm
rain 24hr
cm
rain mn
cm
humidity
%
barometer
mb
20260506222947 27 198 6.4 19.3 0.00 0.00 0.00 79 1012.0
20260506222503 27 85 4.8 11.3 0.00 0.00 0.00 79 1012.1
20260506222047 27 225 6.4 16.1 0.00 0.00 0.00 80 1012.1
20260506221615 27 164 4.8 14.5 0.00 0.00 0.00 79 1012.0
20260506221147 27 152 4.8 9.7 0.00 0.00 0.00 79 1012.2
20260506220701 27 147 6.4 14.5 0.00 0.00 0.00 79 1012.3
20260506220232 27 135 6.4 12.9 0.00 0.00 0.00 80 1012.2
20260506214422 27 140 6.4 12.9 0.00 0.00 0.00 78 1012.6
20260506213927 27 169 6.4 16.1 0.00 0.00 0.00 78 1012.7
20260506213502 28 228 6.4 14.5 0.00 0.00 0.00 79 1012.8
20260506213043 27 161 4.8 14.5 0.00 0.00 0.00 77 1012.7
20260506212555 27 231 4.8 12.9 0.00 0.00 0.00 74 1012.8
20260506212103 28 93 6.4 14.5 0.00 0.00 0.00 75 1012.7
20260506210302 28 182 4.8 9.7 0.00 0.00 0.00 74 1012.7
20260506205812 28 189 4.8 16.1 0.00 0.00 0.00 73 1012.9
20260506205405 28 216 4.8 12.9 0.00 0.00 0.00 76 1013.1
20260506204918 28 149 6.4 11.3 0.00 0.00 0.00 78 1013.1
20260506204444 27 148 6.4 11.3 0.00 0.00 0.00 77 1013.2
20260506204040 27 237 6.4 16.1 0.00 0.00 0.00 78 1013.1
20260506203552 28 230 6.4 17.7 0.00 0.00 0.00 78 1013.1
20260506203112 28 169 4.8 12.9 0.00 0.00 0.00 77 1013.0
20260506202650 28 125 4.8 12.9 0.00 0.00 0.00 77 1013.2
20260506202222 28 161 6.4 11.3 0.00 0.00 0.00 79 1013.3
20260506201807 27 150 6.4 14.5 0.00 0.00 0.00 79 1013.4
20260506201327 28 129 6.4 12.9 0.00 0.00 0.00 77 1013.6
20260506200912 28 165 6.4 16.1 0.00 0.00 0.00 77 1013.6
20260506200413 27 107 6.4 20.9 0.00 0.00 0.00 76 1013.8
20260506195942 28 228 4.8 12.9 0.00 0.00 0.00 79 1013.9
20260506194127 28 144 6.4 12.9 0.00 0.00 0.00 78 1014.0
20260506193642 27 175 6.4 12.9 0.00 0.00 0.00 79 1013.9
20260506174053 27 140 6.4 16.1 0.00 0.00 0.00 79 1014.9
20260506173602 27 138 4.8 11.3 0.00 0.00 0.00 81 1014.9
20260506173147 27 133 4.8 11.3 0.00 0.00 0.00 80 1015.0
20260506172728 27 144 4.8 11.3 0.00 0.00 0.00 81 1015.1
20260506172315 27 157 4.8 14.5 0.00 0.00 0.00 82 1015.1
20260506171827 27 148 4.8 12.9 0.00 0.00 0.00 82 1015.2
20260506171342 27 148 4.8 11.3 0.00 0.00 0.00 80 1015.2
20260506170855 27 229 4.8 16.1 0.00 0.00 0.00 82 1015.1
20260506170407 27 233 4.8 11.3 0.00 0.00 0.00 82 1015.1
20260506170002 27 141 4.8 16.1 0.00 0.00 0.00 82 1015.2
20260506165533 27 245 4.8 11.3 0.00 0.00 0.00 83 1015.2
20260506165127 27 152 4.8 12.9 0.00 0.00 0.00 82 1015.1
20260506164653 27 148 4.8 11.3 0.00 0.00 0.00 82 1015.1
20260506164212 27 167 4.8 11.3 0.00 0.00 0.00 82 1015.0
20260506163737 27 169 4.8 12.9 0.00 0.00 0.00 82 1015.1
20260506163327 27 155 4.8 12.9 0.00 0.00 0.00 82 1015.1
20260506162847 27 150 3.2 9.7 0.00 0.00 0.00 82 1015.1
20260506162442 27 163 4.8 9.7 0.00 0.00 0.00 84 1015.0
20260506162035 27 202 4.8 11.3 0.00 0.00 0.00 84 1014.9
20260506161626 26 159 6.4 12.9 0.00 0.00 0.00 85 1014.9
20260506161207 26 218 4.8 17.7 0.00 0.00 0.00 84 1014.8
20260506160708 27 155 4.8 12.9 0.00 0.00 0.00 84 1014.7
20260506160217 27 169 4.8 12.9 0.00 0.00 0.00 85 1014.6
20260506155747 27 169 4.8 14.5 0.00 0.00 0.00 85 1014.6
20260506155308 26 131 4.8 17.7 0.00 0.00 0.00 84 1014.7
20260506154837 26 175 4.8 11.3 0.00 0.00 0.00 87 1014.8
20260506154418 26 150 4.8 11.3 0.00 0.00 0.00 86 1014.7
20260506153507 26 226 6.4 14.5 0.00 0.00 0.00 86 1014.6
20260506153027 26 209 4.8 11.3 0.00 0.00 0.00 85 1014.6
20260506152607 26 211 4.8 14.5 0.00 0.00 0.00 86 1014.6
20260506152120 26 265 4.8 12.9 0.00 0.00 0.00 87 1014.6
20260506151628 26 252 4.8 11.3 0.00 0.00 0.00 86 1014.5
20260506151143 26 164 4.8 12.9 0.00 0.00 0.00 87 1014.4
20260506150732 26 167 6.4 14.5 0.00 0.00 0.00 87 1014.5
20260506150303 26 196 4.8 16.1 0.00 0.00 0.00 88 1014.4
20260506145810 26 256 4.8 8.0 0.00 0.00 0.00 87 1014.3
20260506145344 25 190 6.4 12.9 0.00 0.00 0.00 87 1014.3
20260506144926 25 159 4.8 14.5 0.00 0.00 0.00 88 1014.3
20260506144435 26 209 3.2 9.7 0.00 0.00 0.00 87 1014.2
20260506144002 25 225 4.8 9.7 0.00 0.00 0.00 89 1014.2
20260506142612 25 133 4.8 11.3 0.00 0.00 0.00 89 1014.2
20260506142125 25 140 4.8 11.3 0.00 0.00 0.00 90 1014.1
20260506141703 25 135 4.8 14.5 0.00 0.00 0.00 90 1014.2
20260506141239 25 151 4.8 12.9 0.00 0.00 0.00 91 1014.0
20260506140812 25 136 4.8 12.9 0.00 0.00 0.00 91 1014.0
20260506135920 24 146 6.4 16.1 0.00 0.00 0.00 90 1013.9
20260506134555 24 136 6.4 11.3 0.00 0.00 0.00 92 1013.7
20260506134133 24 121 6.4 11.3 0.00 0.00 0.00 93 1013.7
20260506133707 23 159 6.4 16.1 0.00 0.00 0.00 93 1013.6
20260506133239 23 112 4.8 12.9 0.00 0.00 0.00 92 1013.7
20260506132807 23 182 3.2 11.3 0.00 0.00 0.00 94 1013.6
20260506132312 23 236 3.2 9.7 0.00 0.00 0.00 96 1013.5
20260506131832 23 178 4.8 12.9 0.00 0.00 0.00 97 1013.5
20260506131415 23 163 3.2 11.3 0.00 0.00 0.00 97 1013.5
20260506130924 23 142 3.2 9.7 0.00 0.00 0.00 97 1013.4
20260506130515 23 136 3.2 11.3 0.00 0.00 0.00 98 1013.3
20260506125553 22 221 3.2 11.3 0.00 0.00 0.00 98 1013.2
20260506125112 22 162 3.2 8.0 0.00 0.00 0.00 99 1013.3
20260506124712 22 146 3.2 9.7 0.00 0.00 0.00 99 1013.2
20260506124244 22 149 3.2 9.7 0.00 0.00 0.00 10 1012.9
20260506123812 22 170 3.2 9.7 0.00 0.00 0.00 10 1012.9
20260506123352 22 157 3.2 9.7 0.00 0.00 0.00 10 1012.9
20260506122855 22 156 3.2 6.4 0.00 0.00 0.00 10 1012.9
20260506122428 22 160 3.2 9.7 0.00 0.00 0.00 10 1012.7
20260506121049 22 136 3.2 8.0 0.00 0.00 0.00 10 1012.5
20260506120615 22 163 4.8 12.9 0.00 0.00 0.00 10 1012.3
20260506120142 22 161 4.8 12.9 0.00 0.00 0.00 10 1012.2
20260506115205 21 231 3.2 9.7 0.00 0.00 0.00 10 1012.0
20260506114725 21 165 3.2 9.7 0.00 0.00 0.00 10 1012.1
20260506113357 21 149 1.6 9.7 0.00 0.00 0.00 10 1011.9
20260506112438 21 119 0.0 6.4 0.00 0.00 0.00 10 1011.8
20260506111548 21 135 0.0 3.2 0.00 0.00 0.00 10 1011.6
20260506111102 21 139 0.0 4.8 0.00 0.00 0.00 10 1011.6
20260506110623 21 146 0.0 3.2 0.00 0.00 0.00 10 1011.5
20260506110138 21 147 0.0 3.2 0.00 0.00 0.00 10 1011.5
20260506105722 21 148 0.0 1.6 0.00 0.00 0.00 10 1011.5
20260506105241 21 145 0.0 3.2 0.00 0.00 0.00 10 1011.4
20260506104835 21 123 0.0 1.6 0.00 0.00 0.00 10 1011.5
20260506103903 21 115 0.0 3.2 0.00 0.00 0.00 10 1011.5
20260506103002 21 144 0.0 1.6 0.00 0.00 0.00 10 1011.3
20260506102542 21 146 0.0 0.0 0.00 0.00 0.00 10 1011.3
20260506102124 21 146 0.0 3.2 0.00 0.00 0.00 10 1011.2
20260506101702 21 134 1.6 3.2 0.00 0.00 0.00 10 1011.3
20260506101303 21 138 1.6 3.2 0.00 0.00 0.00 10 1011.2
20260506095925 21 136 0.0 1.6 0.00 0.00 0.00 10 1011.2
20260506095442 21 136 0.0 3.2 0.00 0.00 0.00 10 1011.3
20260506094957 21 134 0.0 1.6 0.00 0.00 0.00 10 1011.3
20260506094530 21 123 0.0 1.6 0.00 0.00 0.00 10 1011.3
20260506093615 21 144 0.0 1.6 0.00 0.00 0.00 10 1011.2
20260506093206 21 137 0.0 1.6 0.00 0.00 0.00 10 1011.3
20260506092717 21 137 0.0 1.6 0.00 0.00 0.00 10 1011.4
20260506092218 21 137 0.0 1.6 0.00 0.00 0.00 10 1011.5
20260506091243 21 137 1.6 8.0 0.00 0.00 0.00 10 1011.3
20260506090803 21 143 0.0 1.6 0.00 0.00 0.00 10 1011.3
20260506090359 21 128 0.0 1.6 0.00 0.00 0.00 10 1011.4
20260506085915 21 128 0.0 1.6 0.00 0.00 0.00 10 1011.6
20260506085513 21 128 0.0 3.2 0.00 0.00 0.00 10 1011.5
20260506084544 21 119 0.0 3.2 0.00 0.00 0.00 10 1011.5
20260506084048 21 148 0.0 3.2 0.00 0.00 0.00 10 1011.6
20260506083155 21 159 0.0 1.6 0.00 0.00 0.00 10 1011.6
20260506082728 21 151 0.0 1.6 0.00 0.00 0.00 10 1011.5
20260506082233 21 151 0.0 6.4 0.00 0.00 0.00 10 1011.6
20260506081353 21 148 0.0 1.6 0.00 0.00 0.00 10 1011.8
20260506080921 21 135 0.0 3.2 0.00 0.00 0.00 10 1011.9
20260506073508 21 175 0.0 3.2 0.00 0.00 0.00 10 1011.9
20260506073022 21 142 0.0 3.2 0.00 0.00 0.00 10 1011.7
20260506072528 21 155 0.0 3.2 0.00 0.00 0.00 10 1011.8
20260506072029 21 112 0.0 3.2 0.00 0.00 0.00 10 1011.7
20260506071613 21 167 0.0 1.6 0.00 0.00 0.00 10 1011.7
20260506071132 21 164 0.0 1.6 0.00 0.00 0.00 10 1011.9
20260506070716 21 164 1.6 3.2 0.00 0.00 0.00 10 1011.9
20260506070241 21 162 1.6 8.0 0.00 0.00 0.00 10 1011.7
20260506061350 21 213 0.0 3.2 0.00 0.00 0.00 10 1012.2
20260506060433 21 155 1.6 8.0 0.00 0.00 0.00 10 1012.2
20260506043607 21 148 0.0 1.6 0.00 0.00 0.00 99 1013.0
20260506043156 21 148 0.0 3.2 0.00 0.00 0.00 99 1012.9
20260506042706 21 150 0.0 3.2 0.00 0.00 0.00 10 1013.0
20260506042301 21 168 0.0 3.2 0.00 0.00 0.00 99 1013.2
20260506041840 21 130 0.0 3.2 0.00 0.00 0.00 99 1013.1
20260506041347 21 156 0.0 6.4 0.00 0.00 0.00 99 1013.3
20260506040902 22 149 0.0 6.4 0.00 0.00 0.00 99 1013.2
20260506040458 22 157 1.6 6.4 0.00 0.00 0.00 99 1013.3
20260506040020 22 156 0.0 3.2 0.00 0.00 0.00 99 1013.3
20260506035537 22 146 0.0 3.2 0.00 0.00 0.00 99 1013.4
20260506035046 22 248 0.0 1.6 0.00 0.00 0.00 99 1013.4
20260506034617 22 173 1.6 6.4 0.00 0.00 0.00 99 1013.3
20260506034132 22 211 0.0 6.4 0.00 0.00 0.00 99 1013.3
20260506033707 22 137 0.0 6.4 0.00 0.00 0.00 98 1013.2
20260506033222 22 140 1.6 3.2 0.00 0.00 0.00 98 1013.2
20260506032732 22 157 1.6 6.4 0.00 0.00 0.00 98 1013.0
20260506032235 22 144 1.6 4.8 0.00 0.00 0.00 98 1013.1
20260506031754 22 105 1.6 3.2 0.00 0.00 0.00 98 1013.1
20260506031307 22 140 1.6 8.0 0.00 0.00 0.00 98 1013.0
20260506030357 22 162 1.6 6.4 0.00 0.00 0.00 98 1013.2
20260506025927 22 149 1.6 6.4 0.00 0.00 0.00 97 1013.2
20260506025515 22 152 1.6 3.2 0.00 0.00 0.00 97 1013.1
20260506025026 22 152 3.2 12.9 0.00 0.00 0.00 97 1013.2
20260506024555 22 99 1.6 12.9 0.00 0.00 0.00 98 1013.3
20260506024110 22 149 1.6 8.0 0.00 0.00 0.00 97 1013.2
20260506023702 22 163 1.6 8.0 0.00 0.00 0.00 97 1013.3
20260506023232 22 169 1.6 6.4 0.00 0.00 0.00 97 1013.2
20260506022832 22 151 1.6 12.9 0.00 0.00 0.00 97 1013.2
20260506022415 22 147 3.2 8.0 0.00 0.00 0.00 97 1013.1
20260506022002 22 124 1.6 12.9 0.00 0.00 0.00 97 1013.0
20260506021602 22 128 1.6 12.9 0.00 0.00 0.00 97 1013.0
20260506021107 22 140 0.0 1.6 0.00 0.00 0.00 96 1013.1
20260506020622 22 144 1.6 1.6 0.00 0.00 0.00 96 1013.2
20260506020202 22 123 1.6 6.4 0.00 0.00 0.00 96 1013.2
20260506015756 22 136 1.6 3.2 0.00 0.00 0.00 96 1013.1
20260506015338 22 234 1.6 8.0 0.00 0.00 0.00 96 1013.0
20260506014907 22 123 1.6 8.0 0.00 0.00 0.00 96 1013.1
20260506014508 22 163 1.6 9.7 0.00 0.00 0.00 95 1013.0
20260506014107 22 161 1.6 6.4 0.00 0.00 0.00 95 1012.8
20260506013617 22 155 3.2 9.7 0.00 0.00 0.00 95 1012.7
20260506013215 22 128 3.2 9.7 0.00 0.00 0.00 95 1012.8
20260506012747 22 155 3.2 9.7 0.00 0.00 0.00 95 1012.8
20260506012253 22 159 3.2 8.0 0.00 0.00 0.00 95 1012.8
20260506011803 22 151 1.6 16.1 0.00 0.00 0.00 95 1012.8
20260506011348 22 136 3.2 9.7 0.00 0.00 0.00 94 1012.8
20260506010917 22 167 3.2 11.3 0.00 0.00 0.00 94 1012.7
20260506010502 22 158 3.2 8.0 0.00 0.00 0.00 94 1012.5
20260506010002 22 139 3.2 8.0 0.00 0.00 0.00 94 1012.7
20260506005527 22 207 3.2 9.7 0.00 0.00 0.00 93 1012.6
20260506005122 22 161 3.2 9.7 0.00 0.00 0.00 93 1012.5
20260506004647 22 144 3.2 9.7 0.00 0.00 0.00 93 1012.6
20260506004212 22 171 3.2 11.3 0.00 0.00 0.00 92 1012.5
20260506003723 22 152 3.2 11.3 0.00 0.00 0.00 92 1012.6
20260506003223 22 158 3.2 11.3 0.00 0.00 0.00 92 1012.4
20260506002757 22 123 3.2 9.7 0.00 0.00 0.00 91 1012.5
20260506002305 22 212 1.6 9.7 0.00 0.00 0.00 91 1012.4
20260506001832 23 129 1.6 8.0 0.00 0.00 0.00 91 1012.3
20260506001332 23 142 3.2 9.7 0.00 0.00 0.00 91 1012.2
20260506000912 23 129 4.8 12.9 0.00 0.00 0.00 90 1012.3
20260506000442 23 157 3.2 12.9 0.00 0.00 0.00 89 1012.2
20260506000017 23 164 3.2 8.0 0.00 0.00 0.00 89 1012.1
20260505235527 23 160 4.8 11.3 0.00 0.00 0.00 88 1012.3
20260505235103 23 148 4.8 14.5 0.00 0.00 0.00 88 1012.4
20260505234617 23 229 4.8 11.3 0.00 0.00 0.00 87 1012.4
20260505234207 23 132 4.8 16.1 0.00 0.00 0.00 87 1012.4
20260505233742 23 155 4.8 16.1 0.00 0.00 0.00 86 1012.4
20260505233307 24 144 4.8 11.3 0.00 0.00 0.00 86 1012.6
20260505232823 24 126 4.8 9.7 0.00 0.00 0.00 85 1012.6
20260505232328 24 141 4.8 14.5 0.00 0.00 0.00 83 1012.5
20260505231833 25 133 6.4 9.7 0.00 0.00 0.00 83 1012.3
20260505231414 24 136 8.0 14.5 0.00 0.00 0.00 82 1012.3
20260505231012 25 162 8.0 17.7 0.00 0.00 0.00 81 1012.3
20260505230606 25 135 6.4 17.7 0.00 0.00 0.00 82 1012.3
20260505230137 25 154 6.4 14.5 0.00 0.00 0.00 81 1012.4
20260505225727 25 143 4.8 14.5 0.00 0.00 0.00 80 1012.3
20260505225315 25 256 4.8 17.7 0.00 0.00 0.00 79 1012.3
20260505224842 25 142 4.8 11.3 0.00 0.00 0.00 79 1012.4
20260505224428 25 140 6.4 12.9 0.00 0.00 0.00 78 1012.4
20260505223946 25 158 4.8 14.5 0.00 0.00 0.00 76 1012.5
20260505223517 25 150 6.4 12.9 0.00 0.00 0.00 76 1012.6